sat.trackr.live / text

‹ back to catalog

ONEWEB-0432

NORAD 50502 · 2021-132AK

PAYLOAD ACTIVE UNKNOWN

§ Identity

Operator
Country
UK
Launch date
2021-12-27
Launch site
TYMSC
Launch vehicle
Mass (kg)
RCS (m²)

Purposes: comms

External: N2YO · Heavens-Above · Gunter

§ Orbital elements

Epoch: 2026-05-25T01:35:26.560032Z

Period
109.20 min
Inclination
87.9169°
Eccentricity
0.0001606
Mean motion
13.18712754 rev/d
Perigee alt
1,188.4 km
Apogee alt
1,190.9 km
Semi-major
7,567.8 km
B*
-5.6287e-5
RAAN
340.0317°
Arg perigee
107.7591°
Mean anomaly
252.3717°
Rev number
21,853

§ Raw data

ONEWEB-04321 50502U 21132AK  26145.06627963 -.00000009  00000+0 -56287-4 0  99902 50502  87.9169 340.0317 0001606 107.7591 252.3717 13.18712754218530

JSON: /api/v1/satellites/50502 · /tle

For live sub-satellite position, see the globe view (requires WebGL).

§ Visibility from observer

Set your observer location to see the next 7 days of passes ≥ 10°. The values pass through the URL so the page stays shareable.

No JS? Fill the form by hand. The geolocation button needs JavaScript.